Location: Ceska republika
(50.0000°N, 15.0000°E)
Time: 18:19:59
(UTC+02:00)

ISS - Pass Details

Date: 13 October 2017
Orbit: 401 x 408 km, 51.6° (Epoch: 21 October)

Event Time Altitude Azimuth Distance (km) Brightness Sun altitude
Rises 20:06:25 0° 282° (WNW) 2,327 1.7 -19.0°
Reaches altitude 10° 20:09:07 10° 258° (WSW) 1,464 0.0 -19.4°
Maximum altitude 20:11:05 15° 221° (SW) 1,194 -1.1 -19.7°
Enters shadow 20:12:38 12° 191° (S) 1,363 -1.2 -20.0°
